Regional Weather Roundup
Issued by NWS Wakefield, VA

Home | Current Version | Previous Version | Text Only | Print | Product List | Glossary On
Versions: 1 2 3 4 5 6 7 8 9 10 11 12 13 14 15 16 17 18 19 20 21 22 23 24 25 26 27 28 29 30 31 32 33 34 35 36 37 38 39 40 41 42 43 44 45 46 47 48 49 50
270
ASUS41 KAKQ 042215
RWRAKQ

REGIONAL WEATHER ROUNDUP
NATIONAL WEATHER SERVICE WAKEFIELD VA
600 PM EDT WED MAY 04 2016

Note: "fair" indicates few or no clouds below 12,000 feet with no
significant weather and/or obstructions to visibility. * = Denotes
station may not report precipitation (e.g., rain,snow,etc.),
thunder or fog.

VAZ042-051-052>054-056-042300-
NORTHERN VIRGINIA

CITY           SKY/WX    TMP DP  RH WIND       PRES   REMARKS
WASH NATIONAL  CLOUDY    58  53  84 NE12      29.65S
DULLES         PTSUNNY   60  52  74 E6        29.64S
FORT BELVOIR   CLOUDY    60  53  77 VRB2      29.64R
QUANTICO       PTSUNNY   63  55  75 NE10      29.64R
FREDERICKSBRG* PTSUNNY   65  57  77 E5        29.62R
STAFFORD*      PTSUNNY   61  53  75 NW7       29.68R
WARRENTON      LGT RAIN  60  53  77 E6        29.62F
CULPEPER*      CLOUDY    59  55  88 CALM      29.63F
MANASSAS*      CLOUDY    61  55  82 CALM      29.63S
LEESBURG*      CLOUDY    61  55  82 E5        29.65R
WINCHESTER     PTSUNNY   59  52  77 N5        29.64R
FRONT ROYAL*   CLOUDY    57  54  88 N3        29.63R
LURAY*         CLOUDY    64  50  59 CALM      29.61S
$$

VAZ048-049-060>072-079>083-042300-
CENTRAL AND SOUTH CENTRAL VIRGINIA

CITY           SKY/WX    TMP DP  RH WIND       PRES   REMARKS
RICHMOND       PTSUNNY   59  57  93 NE6       29.61S
CHESTERFIELD*  FAIR      63  48  59 NE6       29.61S
PETERSBURG*    PTSUNNY   68  56  65 NE9       29.60S
HANOVER        CLOUDY    61  55  81 E3        29.62S
TAPPAHANNOCK*  RAIN      60  58  92 NE5       29.63S
QUINTON*       CLOUDY    59  57  93 CALM      29.61S
CHARLOTTSVILLE FAIR      67  51  56 E3        29.60S
GORDONSVILLE*  CLOUDY    62  56  81 E6        29.61S
ORANGE*        CLOUDY    61  57  88 CALM      29.63S
LOUISA*        CLOUDY    68  57  68 N6        29.60S
BUMPASS*       MOCLDY    65  57  75 NE3       29.61S
FARMVILLE*     FAIR      72  45  38 CALM      29.58S
CREWE*         FAIR      72  46  39 W5        29.59R
FORT PICKETT*  NOT AVBL
CHASE CITY*    FAIR      70  44  38 CALM      29.61R
CLARKSVILLE*   FAIR      72  45  37 W5        29.59S
SOUTH HILL*    FAIR      71  50  46 W5        29.65S
LAWRENCEVILLE* FAIR      72  49  45 NW3       29.59R
EMPORIA*       FAIR      70  55  60 CALM      29.60R
$$

VAZ088>098-042300-
SOUTHEAST VIRGINIA

CITY           SKY/WX    TMP DP  RH WIND       PRES   REMARKS
NORFOLK        CLOUDY    60  55  83 NE8       29.63R
VIRGINIA BEACH CLOUDY    61  55  81 NE9       29.63R FOG
NORFOLK NAVAL  CLOUDY    60  56  86 NE10      29.65R
WEST POINT*    FAIR      61  56  83 NE6       29.64R
SALUDA*        CLOUDY    58  56  93 N7        29.63R
NEWPORT NEWS   CLOUDY    59  57  93 NE10      29.63R
LANGLEY AFB    CLOUDY    59  56  90 NE15      29.64R
FORT EUSTIS    CLOUDY    64  56  75 E12       29.61R
WILLIAMSBURG*  FAIR      66  61  82 CALM      29.62S
HR EXEC AP*    CLOUDY    64  57  77 NE6       29.64R
FRANKLIN*      FAIR      69  58  67 E3        29.61R
US460-WAKEFLD  PTSUNNY   70  58  65 NE5       29.60R
$$

VAZ020-022-025-037-045-042300-
WEST CENTRAL AND SOUTHWEST VIRGINIA

CITY           SKY/WX    TMP DP  RH WIND       PRES   REMARKS
STAUNTON*      FAIR      65  43  44 N6        29.62S
WAYNESBORO*    CLOUDY    64  40  40 CALM      29.61S
HOT SPRINGS VA FAIR      54  40  59 NW10G18   29.65S
LYNCHBURG      FAIR      65  45  48 CALM      29.62R
DANVILLE       PTSUNNY   70  48  45 W7        29.61S
SOUTH BOSTON*  MOCLDY    69  46  43 W5        29.61R
MARTINSVILLE   PTSUNNY   65  42  42 W5        29.65S
ROANOKE        PTSUNNY   65  42  43 W10       29.63S
BLACKSBURG     CLOUDY    60  44  55 W5        29.68S
DUBLIN*        CLOUDY    61  42  50 W7        29.67S
MARION*        PTSUNNY   59  41  51 SW12      29.69S
HILLSVILLE*    CLOUDY    58  40  50 W5        29.66S
RICHLANDS*     CLOUDY    56  28  33 W10       29.68S
WISE*          CLOUDY    54  34  47 W9        29.70S
ABINGDON*      CLOUDY    61  39  43 NW9G16    29.68R
$$

MDZ021>025-VAZ099-100-042300-
SOUTHERN MARYLAND AND THE DELMARVA PENINSULA

CITY           SKY/WX    TMP DP  RH WIND       PRES   REMARKS
PATUXENT RIVER CLOUDY    56  53  90 NE7       29.65R
BAY BRIDGE APT NOT AVBL
LEONARDTOWN    CLOUDY    54  52  94 NE3       29.66S
DOVER          CLOUDY    53  53 100 NE12      29.66F
GEORGETOWN     CLOUDY    53  51  93 NE9       29.66F
EASTON         CLOUDY   N/A N/A N/A E7        29.69S HAZE
CAMBRIDGE      CLOUDY    54  52  94 NE5       29.65S
SALISBURY      CLOUDY    53  52  96 NE10      29.64F FOG
OCEAN CITY     CLOUDY    52  50  93 NE13G22   29.64F
WALLOPS ISLAND CLOUDY    56  52  86 NE9       29.64F
ACCOMACK*      CLOUDY   N/A N/A N/A N6        29.63S FOG
$$

NCZ012>017-030>032-042300-
NORTH CENTRAL AND EASTERN NORTH CAROLINA

CITY           SKY/WX    TMP DP  RH WIND       PRES   REMARKS
ROANOKE RAPIDS FAIR      70  54  56 W6        29.60R
RALEIGH        MOSUNNY   72  50  45 SW6       29.62R
ELIZABETH CITY CLOUDY    66  60  81 NE12      29.61R
AHOSKIE*       PTSUNNY   69  60  71 CALM      29.61R
EDENTON*       CLOUDY    72  62  70 CALM      29.60S
CURRITUCK*     NOT AVBL
KILL DEVIL HLS CLOUDY    60  56  85 N9        29.60F
MANTEO         CLOUDY    61  59  94 NE10      29.62R
CAPE HATTERAS  CLOUDY    71  65  81 SE5       29.58S
TARBORO*       MOCLDY    73  57  57 NW3       29.61R
GOLDSBORO      MOSUNNY   76  54  46 W12       29.58R
WASHINGTON     SUNNY     74  62  66 N7        29.57S
GREENVILLE     MOSUNNY   73  57  56 W5        29.63R
NEW BERN       CLOUDY    75  58  55 NW10      29.59R
WILMINGTON     MOSUNNY   77  55  46 NW10      29.57R
$$

VAZ048-042300-
ELSEWHERE

CITY           SKY/WX    TMP DP  RH WIND       PRES   REMARKS
HARRISBURG PA  CLOUDY    56  49  77 NE7       29.67R
BALTIMORE      DRIZZLE   54  52  93 E10       29.66R FOG
ANNAPOLIS      CLOUDY    56  51  84 E7        29.66S
ANDREWS AFB    CLOUDY    56  52  86 E6        29.64R
PHILADELPHIA   CLOUDY    53  45  74 E12       29.71R
HENDERSON NC   SUNNY     70  49  47 SW3       29.61R
GREENSBORO     PTSUNNY   69  42  37 NW10      29.62S
ROCKY MOUNT    MOSUNNY   72  54  53 W6        29.61R
$$

VAZ100-042300-
MARINE

STATION/POSITION TIME  TEMP    WIND        PRES    WAVE   SWELL
                       AIR SEA DIR/SP/G            HT/PER HT/PER
                 (UTC) (F)     (DEG/KT/KT) (MB)    (FT/S) (FT/S)
BRANDYWINE LGT   2100   52      40/ 13/ 16 1004.7R
CAPE MAY NJ      2100   52 58   20/  5/  8 1004.2R
LEWES DE         2100   53 56   10/ 13/ 15 1004.4R
15NM E FENWICK I 2150   50 51              1003.4R   5/ 6
OCEAN-CITY-INLET 2100   52 55   30/ 12/ 18 1003.4S
WACHAPREAGUE VA  2100   56 63   70/ 12/ 14 1002.9R
THOMAS POINT MD  2200   55 58   60/ 10/ 12 1005.5R
GOOSES REEF MD   2200   56 59   60/  8/ 12 1005.1R   1/ 2
COVE POINT MD    2100   55      60/  8/ 11 1004.4F
SOLOMONS ISLAND  2100   56 61   20/  7/  9   N/A
BISHOPS HEAD MD  2100   56 61   30/  9/ 11 1003.1R
PINEY POINT MD   2100           50/  5/  9   N/A
POTOMAC MD       2200   56 60   40/ 10/ 14 1002.8R   0
CAMBRIDGE MD     2100   56 62   50/  7/  9 1003.2F
LEWISETTA VA     2100   57 63   30/  6/ 11 1003.3F
RAPPAHANNOCK LGT 2100           10/ 14/ 15 1003.8R
STINGRAY PT      2200   57 62   30/ 12/ 16 1003.9R   2/ 3
YORK RVR RNG VA  2100   58      60/ 15/ 17 1002.2S
YORKTOWN VA      2100   60 63   80/ 13/ 14 1002.3F
JAMESTOWN VA     2200   65 68   90/  6/ 10   N/A     0
DOMINION TERM VA 2100   61      90/  9/ 11 1002.6F
KIPTOPEKE VA     2100      62   20/  6/  8   N/A
CHES BAY BRIDGE  2100   58 62   10/ 12/ 13 1002.4F
CAPE HENRY VA    2100   58     360/ 11/ 12   N/A
CHESAPEAKE LGHT  2200   54      50/ 14/ 15 1004.3R
WILLOUBY STN VA  2100   59      50/ 11/ 12 1003.6F
CAPE HENRY BUOY  2112      57                N/A     3/ 6
CAPE CHARLES BUO 2126      58                N/A     3/ 7   2/ 7
OFFSHORE WE BUOY 2121      57                N/A     4/ 6   3/ 6
64NM E OF VA BCH 2150   54 56   10/  8/  8 1003.2R   3/ 7   3/ 7
DUCK PIER NC     2100   58      30/ 14/ 16 1001.7S
44100 DUCK FRF   2124      60                N/A     4/ 6
44056 DUCK FRF   2111      60                N/A     3/ 5
OREGON INLET NC  2100   60 65  360/  8/ 12 1002.1R
HATTERAS NC      2100   70 70  170/  5/  6 1001.5R
DIAMOND SHLS NC  2150   71 71  210/  4/  6 1001.3F   3/ 7   3/ 7
CAPE LOOKOUT NC  2200   71     240/  9/ 11 1000.9S
$$




USA.gov is the U.S. government's official web portal to all federal, state and local government web resources and services.